Wind_Speed
16 15 14 12 13 13 15 23 28 30 34 41 46 46 46 47 46 46 47 44 42 38 36 35 35 33 29 27 25 21 15 14 12 10 6 3 3 7 12 15 24 30 30 31 28
17 19 18 18 17 16 15 17 20 29 33 36 42 49 49 48 49 50 49 48 46 43 40 39 37 37 31 30 29 27 21 16 13 12 9 6 0 7 7 10 15 21 27 31 30
14 17 17 17 19 21 23 19 20 24 30 36 40 44 51 52 51 53 52 52 50 48 45 43 40 37 36 33 31 31 24 23 19 17 13 9 7 2 3 8 13 17 23 29 31
16 15 13 14 15 20 16 18 23 26 29 35 40 44 47 54 55 54 55 55 54 52 49 46 45 41 40 36 34 34 29 24 21 20 16 12 10 7 3 6 9 12 23 26 28
15 16 18 16 18 22 22 19 21 23 33 34 40 48 49 51 55 59 57 57 57 55 53 50 49 46 43 39 38 36 32 27 26 23 19 15 12 8 5 5 6 8 15 19 26
17 19 19 19 22 25 27 29 25 28 31 37 41 45 53 53 56 60 61 60 59 59 57 54 53 52 48 44 42 38 34 31 28 29 21 16 14 11 10 7 8 6 8 16 20
22 24 23 25 25 27 29 34 34 37 37 39 42 47 50 54 58 58 63 64 61 61 61 58 57 54 52 49 46 43 37 33 32 33 27 21 18 14 12 9 8 9 7 10 14
27 30 31 30 31 33 34 38 44 45 47 48 46 51 51 57 61 61 62 66 65 64 62 63 60 59 54 52 48 42 39 36 33 33 31 25 20 17 14 11 10 10 10 7 10
33 35 35 34 37 38 41 46 50 53 54 53 51 54 58 57 61 64 65 66 69 67 65 65 64 62 58 53 45 42 39 34 34 34 34 28 21 17 17 17 15 15 8 9 7
37 38 39 40 41 43 47 52 59 61 60 52 50 57 58 59 57 63 67 68 71 71 69 66 66 64 62 57 48 46 34 31 35 35 33 30 24 25 22 20 17 17 12 9 6
39 41 43 44 44 46 53 60 68 70 65 50 44 50 58 64 63 61 68 71 70 72 72 70 68 67 64 61 52 41 37 29 35 39 35 30 27 27 16 13 22 17 15 12 8
41 42 46 47 48 50 57 66 73 73 68 42 34 44 56 61 62 59 64 72 72 73 75 73 70 71 68 64 57 46 39 29 37 45 40 36 24 26 35 24 23 23 19 15 11
43 45 48 49 52 53 61 70 76 75 64 31 26 40 54 61 61 60 60 68 73 74 75 75 77 74 70 65 63 58 57 37 23 48 46 45 41 35 33 30 33 31 27 25 18
44 47 52 53 54 57 63 74 80 73 55 25 18 35 54 60 62 65 61 63 70 73 76 77 79 75 71 72 70 69 70 58 36 57 56 48 42 42 37 41 38 35 33 31 26
47 50 54 55 56 59 66 75 82 71 51 21 15 25 47 60 58 66 65 63 66 69 76 77 78 78 77 76 77 76 73 65 30 64 68 60 52 43 45 38 33 44 38 37 36
50 52 54 55 56 61 67 76 80 70 45 19 16 20 34 49 59 64 69 68 65 70 72 80 80 78 82 81 79 79 86 79 46 66 68 67 62 51 49 47 31 31 33 37 41
51 54 53 54 56 62 68 75 79 67 41 19 16 28 27 42 52 61 69 71 68 68 70 77 77 79 83 84 81 80 88 89 80 67 67 69 66 56 58 52 44 33 39 35 40
52 51 51 52 56 63 70 74 78 63 34 19 17 22 35 38 45 57 66 70 71 70 73 75 82 83 82 82 84 83 84 85 82 77 72 73 67 64 63 62 61 53 50 43 47
45 47 48 52 58 64 71 78 73 63 27 20 21 24 29 37 44 48 63 68 71 72 74 75 81 88 86 84 86 86 86 83 84 81 74 75 72 64 65 68 69 68 66 65 53
41 42 46 52 59 65 72 74 74 66 25 17 19 29 32 37 42 50 58 67 70 73 76 77 81 87 89 89 86 89 88 86 82 83 80 79 77 72 68 70 73 75 68 72 66
38 42 48 54 60 67 71 77 79 73 24 20 19 21 28 39 43 47 53 61 69 72 74 76 77 84 88 90 88 88 87 87 85 84 83 80 87 76 72 74 75 77 72 65 65
38 44 48 55 63 67 70 73 78 74 27 18 22 24 29 40 43 52 56 53 60 68 73 77 79 83 87 91 94 93 90 91 90 86 84 90 88 82 82 74 75 77 78 70 64
39 47 51 58 63 65 69 71 72 71 28 21 24 30 41 51 52 57 61 61 61 64 70 76 77 81 86 93 97 92 89 92 91 91 90 91 98 95 89 75 72 80 77 79 69
42 47 55 59 64 64 68 75 71 66 33 27 27 26 32 42 49 59 66 67 65 64 60 60 71 78 82 89 94 96 95 95 95 95 92 92 94 100 97 94 74 77 81 78 77
44 52 59 60 65 62 68 73 74 60 37 33 29 19 21 31 41 52 63 63 70 67 66 64 64 76 84 87 91 96 99 97 96 96 97 98 99 98 99 98 95 83 78 81 80
48 57 59 63 61 66 69 68 73 54 39 39 33 18 13 24 39 46 52 64 66 75 71 68 64 63 77 84 90 97 99 98 100 102 101 105 96 43 103 104 102 101 92 83 78
51 57 61 63 63 67 65 66 69 59 40 41 34 17 7 15 27 42 50 57 65 63 67 68 64 59 66 78 87 92 99 99 99 104 105 106 108 101 96 105 107 106 101 97 86
Wind_Direction
29 17 3 343 322 307 287 258 250 245 239 236 232 229 228 228 226 225 223 223 219 215 210 209 211 215 209 201 194 186 163 211 194 183 174 173 75 28 42 43 38 32 44 45 48
17 14 12 6 360 338 320 284 265 253 246 240 235 232 228 227 226 225 224 222 221 217 213 210 210 213 211 199 195 184 185 192 213 200 189 190 195 25 28 32 29 25 37 46 45
352 350 1 1 6 351 338 325 290 265 251 246 239 235 231 228 226 225 223 220 221 219 215 212 211 211 212 204 198 191 200 204 202 211 193 193 228 309 38 23 37 27 40 43 41
335 333 333 335 331 335 326 326 314 291 273 253 242 238 233 230 226 225 223 221 219 220 216 213 211 211 211 210 203 195 205 208 206 204 200 199 236 225 297 357 30 31 39 39 38
326 325 332 321 323 330 329 326 317 307 288 271 255 239 234 230 228 227 224 221 219 218 219 213 214 212 210 210 207 204 209 211 211 200 201 200 216 230 253 301 343 18 31 29 37
321 319 324 327 327 324 324 321 318 321 309 289 269 251 237 230 228 225 225 222 218 218 217 216 213 214 212 211 211 207 209 211 212 212 202 210 219 227 232 268 301 339 23 29 32
313 311 312 314 319 323 321 317 318 312 311 297 277 259 245 232 226 226 223 223 219 216 216 217 215 213 213 212 214 211 213 212 216 219 218 207 215 233 235 246 271 312 335 14 27
312 314 312 313 318 320 322 319 315 312 306 299 274 256 248 237 227 222 223 221 219 216 215 215 216 214 213 214 213 216 215 214 214 219 220 220 223 224 237 235 248 273 305 324 10
312 313 311 314 315 322 321 322 320 317 308 299 272 251 243 236 229 222 220 221 218 216 214 214 215 214 213 212 209 214 215 215 213 220 222 222 229 225 237 252 250 257 272 296 354
313 314 316 313 317 321 326 326 324 320 312 297 266 248 239 235 232 223 219 218 218 215 214 213 214 214 212 210 202 207 207 214 218 221 221 221 230 242 235 242 240 242 257 264 310
312 314 315 317 318 322 328 329 328 325 318 304 267 242 231 227 223 222 217 215 216 216 214 213 212 212 212 210 201 200 199 214 222 219 216 210 216 222 226 245 247 241 254 241 264
313 318 317 318 315 323 331 331 330 324 323 310 265 234 224 222 219 217 218 213 214 213 213 212 211 212 210 208 201 191 182 196 214 222 210 208 198 184 215 234 243 230 247 234 247
314 320 319 318 315 325 331 331 331 329 328 306 256 223 215 214 215 215 215 213 211 212 212 211 211 209 207 206 202 187 172 159 177 216 203 206 199 197 207 209 221 248 234 234 239
313 319 321 319 320 327 331 333 333 332 332 306 255 216 209 210 212 212 214 213 211 211 211 211 211 209 207 206 202 193 187 188 191 211 197 199 194 198 199 211 224 223 224 231 240
315 319 320 319 322 328 331 335 337 336 333 305 255 220 209 212 212 212 212 213 212 211 211 211 210 208 208 207 204 197 185 183 173 209 198 196 189 201 200 205 217 221 234 240 244
314 319 320 319 324 327 333 339 339 337 332 295 244 211 214 211 214 211 212 214 212 210 211 210 209 210 209 207 207 201 190 199 195 193 200 202 202 201 198 207 216 234 230 238 240
310 317 319 319 325 329 338 344 343 337 328 293 250 215 206 210 211 213 211 212 214 212 214 210 209 211 210 209 207 208 203 206 211 203 203 204 206 206 207 208 215 224 238 248 230
308 314 317 321 327 332 340 343 345 338 323 283 238 228 213 208 210 213 211 213 214 215 213 211 210 208 211 209 208 207 211 210 209 207 205 202 203 205 214 211 211 215 219 235 236
309 314 318 323 327 336 341 345 345 344 319 271 242 227 214 212 213 214 213 213 215 216 216 213 214 208 209 207 209 208 210 212 210 208 206 202 200 203 216 216 217 217 224 223 232
312 316 321 324 329 339 341 345 345 346 315 264 249 238 219 213 217 219 217 215 215 217 218 217 216 210 209 209 207 210 208 210 212 211 206 205 202 202 211 217 218 218 226 228 234
316 321 322 326 332 340 342 342 344 347 316 265 240 241 237 222 216 220 220 220 219 221 220 218 218 214 212 210 208 210 209 210 212 211 208 204 205 200 207 214 219 218 222 227 227
320 317 322 329 334 339 341 341 344 344 319 274 265 248 241 246 232 213 219 217 219 219 218 218 217 215 213 213 211 209 208 210 211 210 212 204 206 204 205 214 216 219 220 221 225
315 316 324 332 336 339 339 338 344 343 326 296 284 272 251 242 233 219 214 215 217 216 215 217 216 216 213 213 213 211 209 211 211 211 211 211 208 207 206 208 216 221 222 222 222
311 321 327 332 336 337 338 340 344 341 329 315 308 278 250 238 230 224 222 213 215 216 212 215 216 219 215 214 214 212 212 211 211 212 213 215 215 209 209 208 210 218 224 224 224
316 322 330 332 335 336 340 342 343 340 334 331 328 299 254 230 222 219 221 219 215 216 215 216 217 215 217 215 214 214 214 213 211 212 214 216 217 212 212 212 212 211 219 225 228
319 326 330 332 334 334 340 342 344 341 339 342 338 319 256 227 216 215 215 219 215 214 216 218 219 218 217 215 213 214 215 215 215 213 213 217 217 207 217 218 214 217 219 217 224
320 325 329 332 331 334 339 340 346 347 342 347 346 338 253 220 213 213 213 214 217 214 215 217 221 221 222 218 214 214 216 216 218 217 216 217 219 218 216 220 218 218 220 224 222
Height
10924 10922 10921 10919 10918 10917 10916 10916 10917 10919 10920 10923 10926 10930 10935 10940 10944 10948 10954 10961 10965 10970 10975 10979 10983 10988 10994 10999 11004 11010 11013 11013 11015 11016 11016 11015 11015 11014 11012 11011 11009 11005 11001 10997 10992
10922 10920 10917 10916 10914 10913 10911 10911 10910 10911 10914 10915 10917 10921 10926 10931 10936 10940 10946 10953 10958 10964 10969 10973 10979 10983 10990 10996 11001 11007 11009 11011 11013 11015 11016 11015 11016 11016 11015 11013 11012 11010 11006 11001 10997
10921 10919 10916 10913 10911 10909 10907 10905 10905 10904 10903 10906 10909 10912 10916 10921 10927 10930 10937 10943 10950 10957 10963 10969 10975 10980 10986 10992 10997 11003 11004 11007 11010 11014 11015 11016 11016 11016 11016 11015 11014 11013 11010 11005 11002
10920 10917 10914 10912 10909 10907 10904 10901 10899 10897 10897 10897 10898 10902 10905 10912 10917 10921 10927 10934 10941 10948 10955 10963 10969 10975 10981 10987 10993 10998 11000 11004 11008 11011 11014 11015 11016 11017 11017 11017 11016 11015 11012 11009 11007
10917 10914 10911 10908 10906 10902 10899 10895 10894 10891 10889 10888 10888 10889 10893 10899 10905 10910 10916 10924 10932 10939 10947 10955 10962 10969 10975 10982 10988 10993 10997 11002 11006 11009 11012 11014 11015 11017 11018 11018 11018 11017 11015 11013 11010
10912 10909 10906 10904 10901 10897 10894 10891 10886 10883 10881 10878 10877 10877 10881 10887 10889 10897 10904 10912 10921 10929 10938 10946 10953 10960 10969 10976 10982 10989 10995 11000 11004 11006 11010 11013 11014 11016 11019 11018 11019 11019 11017 11016 11013
10907 10903 10900 10897 10893 10889 10885 10881 10877 10873 10869 10866 10863 10862 10866 10873 10876 10884 10890 10899 10909 10919 10928 10937 10944 10952 10961 10968 10976 10984 10992 10997 11001 11004 11008 11011 11013 11016 11018 11019 11019 11019 11019 11018 11016
10900 10896 10892 10889 10885 10880 10875 10870 10865 10859 10854 10850 10846 10845 10849 10852 10860 10869 10877 10885 10896 10906 10917 10926 10934 10943 10953 10961 10972 10982 10988 10994 10998 11001 11006 11010 11012 11015 11016 11018 11019 11019 11019 11019 11019
10893 10888 10884 10880 10875 10869 10863 10857 10850 10842 10834 10827 10821 10821 10829 10832 10843 10853 10861 10871 10882 10893 10904 10914 10923 10934 10945 10956 10969 10976 10985 10991 10996 11000 11003 11008 11010 11012 11015 11016 11018 11018 11020 11020 11020
10885 10880 10875 10871 10864 10858 10850 10842 10833 10822 10810 10797 10791 10793 10805 10817 10825 10835 10845 10855 10867 10879 10891 10903 10913 10924 10936 10948 10961 10973 10982 10989 10994 10997 11001 11006 11008 11008 11012 11014 11016 11017 11019 11019 11020
10877 10871 10866 10860 10853 10845 10835 10825 10813 10798 10782 10769 10764 10769 10776 10789 10802 10818 10828 10840 10851 10866 10878 10888 10900 10915 10926 10939 10958 10969 10982 10988 10989 10992 10998 11003 11004 11005 11010 11012 11012 11014 11016 11018 11019
10868 10862 10856 10849 10842 10833 10822 10810 10795 10779 10759 10745 10743 10748 10758 10771 10786 10800 10812 10823 10836 10848 10861 10877 10890 10900 10915 10933 10950 10964 10977 10976 10977 10987 10993 10998 11000 11003 11009 11006 11008 11011 11014 11016 11018
10859 10853 10846 10839 10830 10820 10809 10796 10779 10759 10742 10730 10729 10734 10744 10756 10772 10785 10797 10810 10820 10834 10848 10861 10869 10886 10906 10924 10939 10954 10965 10964 10968 10976 10985 10991 10992 10995 10999 11002 11005 11006 11011 11013 11015
10850 10844 10836 10828 10819 10808 10797 10782 10765 10745 10729 10720 10720 10724 10733 10745 10757 10770 10783 10795 10809 10821 10833 10845 10859 10879 10897 10907 10924 10939 10954 10970 10962 10964 10974 10980 10983 10988 10993 10996 10998 11002 11006 11010 11012
10841 10834 10826 10817 10808 10798 10786 10770 10751 10734 10721 10715 10714 10717 10724 10734 10751 10758 10770 10784 10795 10807 10820 10834 10850 10867 10878 10893 10906 10924 10940 10936 10948 10950 10961 10967 10975 10982 10987 10992 10993 10998 11002 11004 11007
10831 10825 10817 10808 10798 10788 10777 10760 10741 10724 10714 10710 10711 10713 10717 10726 10734 10748 10761 10771 10783 10795 10806 10818 10837 10852 10864 10877 10894 10911 10920 10921 10926 10939 10950 10961 10968 10974 10980 10985 10989 10991 10994 10998 11001
10822 10815 10807 10798 10789 10779 10767 10753 10733 10717 10707 10705 10705 10709 10713 10719 10728 10737 10750 10760 10772 10783 10793 10810 10822 10834 10848 10865 10882 10898 10904 10911 10922 10933 10939 10951 10959 10968 10973 10979 10983 10988 10989 10992 10995
10812 10805 10798 10790 10780 10770 10758 10743 10728 10712 10701 10700 10701 10704 10709 10713 10719 10728 10739 10750 10759 10768 10779 10792 10802 10817 10835 10854 10867 10879 10890 10902 10912 10922 10932 10939 10950 10959 10963 10968 10973 10977 10979 10985 10988
10800 10795 10788 10781 10772 10761 10749 10736 10721 10705 10697 10694 10695 10700 10703 10708 10713 10719 10729 10737 10746 10757 10766 10776 10787 10799 10815 10832 10848 10863 10874 10887 10898 10910 10924 10931 10939 10949 10952 10957 10962 10966 10969 10976 10979
10791 10786 10779 10772 10763 10753 10740 10728 10713 10699 10691 10689 10690 10692 10696 10700 10704 10710 10716 10723 10733 10740 10749 10763 10773 10790 10801 10814 10832 10847 10859 10872 10887 10899 10911 10917 10928 10935 10940 10945 10950 10957 10959 10967 10973
10783 10777 10771 10764 10755 10744 10732 10720 10706 10693 10685 10683 10682 10684 10686 10691 10694 10697 10704 10711 10720 10729 10741 10753 10763 10779 10789 10805 10819 10831 10849 10862 10872 10881 10894 10906 10909 10923 10927 10931 10937 10946 10952 10957 10965
10775 10769 10762 10755 10746 10735 10724 10710 10698 10686 10675 10673 10673 10674 10677 10673 10680 10682 10685 10702 10710 10715 10725 10736 10743 10759 10780 10788 10800 10811 10831 10843 10853 10868 10881 10889 10899 10907 10912 10914 10924 10934 10942 10948 10956
10767 10760 10754 10746 10736 10725 10714 10702 10687 10675 10666 10663 10659 10656 10652 10652 10660 10668 10671 10681 10690 10697 10706 10718 10735 10747 10759 10769 10784 10806 10819 10830 10843 10851 10861 10868 10874 10885 10894 10906 10914 10922 10931 10939 10946
10759 10752 10745 10736 10727 10716 10706 10693 10676 10662 10655 10648 10642 10632 10629 10630 10637 10646 10651 10664 10675 10689 10700 10711 10721 10734 10749 10760 10770 10787 10800 10811 10824 10835 10850 10855 10855 10870 10882 10896 10903 10909 10916 10926 10934
10751 10744 10736 10727 10718 10707 10696 10683 10667 10653 10643 10635 10626 10617 10612 10614 10621 10628 10637 10648 10663 10674 10686 10698 10706 10713 10725 10746 10757 10776 10782 10796 10810 10823 10831 10834 10833 10860 10870 10879 10888 10896 10903 10913 10921
10743 10735 10727 10718 10708 10699 10688 10677 10660 10645 10635 10625 10615 10607 10602 10603 10609 10615 10623 10634 10646 10659 10672 10683 10697 10709 10721 10730 10741 10754 10770 10782 10791 10800 10810 10807 10834 10882 10860 10862 10872 10880 10887 10897 10907
10733 10725 10718 10710 10699 10690 10680 10669 10655 10640 10630 10621 10610 10602 10597 10596 10599 10604 10611 10621 10631 10651 10665 10679 10688 10704 10706 10714 10729 10740 10753 10766 10777 10780 10791 10796 10800 10831 10841 10843 10854 10865 10873 10883 10893